�������l�o���
Date,Time,MP-1(��Sv/h),MP-2(��Sv/h),MP-3(��Sv/h),MP-4(��Sv/h),MP-5(��Sv/h),MP-6(��Sv/h),MP-7(��Sv/h),MP-8(��Sv/h),����,����(m/s),���J
2023/04/27,00:00,0.543,0.785,0.479,0.985,0.689,0.317,0.564,0.537,�k�k��,7.3,��
2023/04/27,00:10,0.542,0.786,0.479,0.983,0.690,0.316,0.564,0.535,�k�k��,8.0,��
2023/04/27,00:20,0.542,0.786,0.479,0.984,0.691,0.317,0.564,0.539,�k�k��,8.2,��
2023/04/27,00:30,0.541,0.785,0.479,0.984,0.689,0.317,0.563,0.538,�k�k��,8.4,��
2023/04/27,00:40,0.543,0.784,0.479,0.987,0.690,0.317,0.562,0.537,�k�k��,8.5,��
2023/04/27,00:50,0.542,0.784,0.480,0.984,0.690,0.317,0.563,0.536,�k�k��,8.5,��
2023/04/27,01:00,0.544,0.787,0.480,0.985,0.691,0.315,0.564,0.537,�k�k��,8.5,��
2023/04/27,01:10,0.542,0.787,0.480,0.986,0.690,0.317,0.563,0.538,�k�k��,8.5,��
2023/04/27,01:20,0.543,0.787,0.479,0.987,0.692,0.317,0.564,0.536,�k�k��,9.3,��
2023/04/27,01:30,0.544,0.787,0.478,0.989,0.692,0.319,0.565,0.536,�k�k��,6.7,��
2023/04/27,01:40,0.544,0.787,0.480,0.987,0.693,0.317,0.566,0.538,�k�k��,5.3,��
2023/04/27,01:50,0.542,0.786,0.480,0.988,0.691,0.318,0.563,0.538,�k��,7.0,��
2023/04/27,02:00,0.543,0.788,0.479,0.987,0.693,0.317,0.565,0.538,�k��,9.8,��
2023/04/27,02:10,0.542,0.789,0.481,0.986,0.691,0.317,0.564,0.537,�k��,8.4,��
2023/04/27,02:20,0.543,0.788,0.480,0.986,0.692,0.316,0.564,0.538,�k��,8.7,��
2023/04/27,02:30,0.542,0.786,0.479,0.988,0.693,0.316,0.563,0.537,�k��,8.1,��
2023/04/27,02:40,0.542,0.788,0.479,0.989,0.694,0.318,0.564,0.539,�k��,7.1,��
2023/04/27,02:50,0.545,0.788,0.480,0.987,0.693,0.316,0.563,0.537,�k��,6.6,��
2023/04/27,03:00,0.546,0.787,0.480,0.987,0.692,0.317,0.564,0.537,�k��,7.4,��
2023/04/27,03:10,0.544,0.788,0.479,0.988,0.691,0.316,0.566,0.538,�k��,9.4,��
2023/04/27,03:20,0.544,0.788,0.480,0.991,0.694,0.317,0.565,0.538,�k�k��,9.6,��
2023/04/27,03:30,0.542,0.789,0.479,0.988,0.694,0.318,0.565,0.537,�k�k��,9.9,��
2023/04/27,03:40,0.544,0.788,0.480,0.987,0.694,0.317,0.565,0.537,�k�k��,7.5,��
2023/04/27,03:50,0.544,0.787,0.480,0.988,0.695,0.317,0.565,0.537,�k�k��,5.6,��
2023/04/27,04:00,0.544,0.788,0.479,0.991,0.693,0.317,0.566,0.536,�k��,5.2,��
2023/04/27,04:10,0.542,0.787,0.479,0.989,0.693,0.317,0.566,0.538,�k��,3.1,��
2023/04/27,04:20,0.544,0.789,0.480,0.989,0.694,0.317,0.565,0.537,�k��,4.4,��
2023/04/27,04:30,0.544,0.788,0.480,0.992,0.694,0.318,0.564,0.537,�k��,3.2,��
2023/04/27,04:40,0.543,0.788,0.480,0.990,0.694,0.317,0.565,0.536,���k��,5.1,��
2023/04/27,04:50,0.543,0.787,0.480,0.988,0.693,0.317,0.566,0.537,���k��,5.1,��
2023/04/27,05:00,0.544,0.788,0.479,0.990,0.694,0.317,0.564,0.536,���k��,6.6,��
2023/04/27,05:10,0.544,0.789,0.480,0.990,0.693,0.316,0.566,0.536,���k��,6.1,��
2023/04/27,05:20,0.544,0.789,0.480,0.991,0.694,0.317,0.566,0.537,���k��,4.7,��
2023/04/27,05:30,0.542,0.789,0.479,0.990,0.693,0.316,0.567,0.536,���k��,4.4,��
2023/04/27,05:40,0.544,0.790,0.480,0.990,0.695,0.316,0.566,0.538,���k��,4.9,��
2023/04/27,05:50,0.544,0.789,0.481,0.989,0.693,0.317,0.565,0.539,���k��,5.3,��
2023/04/27,06:00,0.543,0.790,0.480,0.990,0.695,0.318,0.565,0.536,���k��,4.7,��
2023/04/27,06:10,0.544,0.789,0.478,0.991,0.693,0.316,0.567,0.538,���k��,3.4,��
2023/04/27,06:20,0.544,0.790,0.479,0.992,0.694,0.317,0.566,0.538,���k��,3.9,��
2023/04/27,06:30,0.543,0.792,0.481,0.990,0.694,0.316,0.567,0.538,���k��,3.8,��
2023/04/27,06:40,0.544,0.791,0.479,0.990,0.694,0.317,0.567,0.536,���k��,4.8,��
2023/04/27,06:50,0.544,0.791,0.479,0.993,0.694,0.318,0.568,0.538,���k��,6.7,��
2023/04/27,07:00,0.545,0.791,0.481,0.990,0.694,0.316,0.568,0.537,�k��,5.7,��
2023/04/27,07:10,0.546,0.790,0.479,0.991,0.695,0.315,0.567,0.536,�k��,7.5,��
2023/04/27,07:20,0.544,0.791,0.482,0.991,0.694,0.315,0.567,0.537,���k��,5.5,��
2023/04/27,07:30,0.545,0.790,0.482,0.993,0.695,0.316,0.569,0.537,���k��,5.8,��
2023/04/27,07:40,0.547,0.791,0.481,0.993,0.694,0.316,0.569,0.537,���k��,5.8,��
2023/04/27,07:50,0.547,0.791,0.481,0.992,0.697,0.316,0.568,0.535,���k��,3.5,��
2023/04/27,08:00,0.546,0.791,0.482,0.991,0.695,0.317,0.568,0.539,�k��,4.8,��
2023/04/27,08:10,0.546,0.790,0.481,0.993,0.697,0.316,0.568,0.538,�k��,6.3,��
2023/04/27,08:20,0.547,0.790,0.481,0.992,0.696,0.316,0.570,0.537,�k��,7.9,��
2023/04/27,08:30,0.547,0.790,0.483,0.992,0.696,0.315,0.568,0.537,�k��,6.4,��
2023/04/27,08:40,0.547,0.792,0.482,0.994,0.697,0.315,0.567,0.536,�k��,6.8,��
2023/04/27,08:50,0.548,0.791,0.484,0.991,0.696,0.317,0.567,0.535,�k��,6.9,��
2023/04/27,09:00,0.548,0.792,0.484,0.995,0.696,0.317,0.568,0.536,�k��,7.0,��
2023/04/27,09:10,0.548,0.794,0.483,0.993,0.696,0.316,0.566,0.536,���k��,4.9,��
2023/04/27,09:20,0.546,0.793,0.484,0.993,0.698,0.315,0.568,0.535,�k��,8.3,��
2023/04/27,09:30,0.546,0.794,0.485,0.993,0.698,0.317,0.568,0.536,�k��,7.0,��
2023/04/27,09:40,0.547,0.793,0.483,0.995,0.697,0.317,0.567,0.537,�k��,8.0,��
2023/04/27,09:50,0.546,0.796,0.484,0.996,0.697,0.316,0.567,0.536,�k��,6.8,��
2023/04/27,10:00,0.547,0.795,0.485,0.994,0.698,0.318,0.568,0.535,�k�k��,6.6,��
2023/04/27,10:10,0.549,0.796,0.485,0.995,0.698,0.319,0.568,0.537,�k�k��,5.9,��
2023/04/27,10:20,0.545,0.795,0.485,0.997,0.698,0.316,0.567,0.538,�k�k��,6.5,��
2023/04/27,10:30,0.551,0.797,0.484,0.997,0.698,0.318,0.567,0.537,�k��,5.9,��
2023/04/27,10:40,0.550,0.797,0.486,0.997,0.700,0.318,0.568,0.538,���k��,5.9,��
2023/04/27,10:50,0.548,0.798,0.485,0.998,0.701,0.317,0.567,0.537,�k��,7.0,��
2023/04/27,11:00,0.551,0.800,0.486,0.998,0.700,0.318,0.568,0.538,���k��,6.5,��
2023/04/27,11:10,0.550,0.798,0.485,0.998,0.702,0.318,0.568,0.539,���k��,6.4,��
2023/04/27,11:20,0.550,0.800,0.486,0.998,0.700,0.318,0.570,0.538,���k��,4.1,��
2023/04/27,11:30,0.549,0.799,0.485,0.998,0.701,0.319,0.568,0.537,��,3.4,��
2023/04/27,11:40,0.551,0.800,0.486,0.998,0.704,0.319,0.568,0.536,���k��,2.8,��
2023/04/27,11:50,0.550,0.801,0.485,0.995,0.703,0.318,0.567,0.538,��쓌,6.1,��
2023/04/27,12:00,0.550,0.800,0.486,0.994,0.702,0.318,0.567,0.537,��쓌,6.0,��
2023/04/27,12:10,0.551,0.802,0.485,0.995,0.704,0.318,0.569,0.536,��쓌,6.2,��
2023/04/27,12:20,0.550,0.802,0.485,0.996,0.705,0.317,0.568,0.537,��쓌,6.2,��
2023/04/27,12:30,0.551,0.802,0.486,0.997,0.702,0.319,0.568,0.539,��쓌,5.3,��
2023/04/27,12:40,0.551,0.804,0.485,0.997,0.703,0.318,0.569,0.540,�쓌,5.9,��
2023/04/27,12:50,0.551,0.803,0.489,0.999,0.704,0.319,0.570,0.539,�쓌,4.3,��
2023/04/27,13:00,0.549,0.802,0.489,1.001,0.704,0.319,0.567,0.539,�쓌,6.0,��
2023/04/27,13:10,0.550,0.801,0.488,0.998,0.704,0.318,0.570,0.540,�쓌,5.5,��
2023/04/27,13:20,0.550,0.799,0.488,0.999,0.706,0.317,0.570,0.538,�쓌,3.8,��
2023/04/27,13:30,0.552,0.803,0.487,0.998,0.705,0.319,0.570,0.539,�쓌,5.7,��
2023/04/27,13:40,0.550,0.803,0.486,0.999,0.705,0.319,0.570,0.538,��쓌,5.2,��
2023/04/27,13:50,0.550,0.801,0.489,1.001,0.705,0.318,0.569,0.538,��쓌,6.6,��
2023/04/27,14:00,0.552,0.801,0.488,1.000,0.706,0.319,0.570,0.539,��쓌,5.3,��
2023/04/27,14:10,0.552,0.801,0.488,1.000,0.706,0.318,0.570,0.537,�쓌,5.2,��
2023/04/27,14:20,0.552,0.802,0.490,0.999,0.707,0.318,0.570,0.538,�쓌,6.4,��
2023/04/27,14:30,0.551,0.805,0.489,1.001,0.706,0.319,0.570,0.538,��쓌,7.5,��
2023/04/27,14:40,0.551,0.804,0.489,1.000,0.708,0.319,0.570,0.538,��쓌,7.6,��
2023/04/27,14:50,0.552,0.804,0.490,1.001,0.707,0.319,0.570,0.539,��쓌,6.6,��
2023/04/27,15:00,0.554,0.804,0.490,0.997,0.708,0.318,0.569,0.540,��쓌,6.5,��
2023/04/27,15:10,0.551,0.805,0.489,0.998,0.709,0.319,0.570,0.538,��쓌,5.8,��
2023/04/27,15:20,0.553,0.804,0.489,0.998,0.707,0.319,0.568,0.538,��쓌,5.6,��
2023/04/27,15:30,0.552,0.804,0.489,1.000,0.710,0.318,0.570,0.539,�쓌,5.5,��
2023/04/27,15:40,0.552,0.801,0.488,0.998,0.708,0.319,0.569,0.538,��쓌,5.2,��
2023/04/27,15:50,0.553,0.805,0.491,1.000,0.708,0.319,0.570,0.538,��쓌,5.1,��
2023/04/27,16:00,0.552,0.804,0.488,1.002,0.708,0.318,0.569,0.539,�쓌,6.3,��
2023/04/27,16:10,0.552,0.803,0.490,0.998,0.707,0.319,0.570,0.535,��쓌,7.6,��
2023/04/27,16:20,0.554,0.807,0.489,0.998,0.708,0.318,0.568,0.538,��쓌,7.6,��
2023/04/27,16:30,0.553,0.807,0.489,1.000,0.708,0.318,0.568,0.538,�쓌,7.5,��
2023/04/27,16:40,0.553,0.806,0.487,1.000,0.710,0.319,0.568,0.537,�쓌,7.2,��
2023/04/27,16:50,0.552,0.806,0.489,1.000,0.709,0.320,0.569,0.538,��쓌,8.4,��
2023/04/27,17:00,0.552,0.809,0.489,1.000,0.709,0.319,0.570,0.538,��쓌,8.2,��
2023/04/27,17:10,0.551,0.806,0.489,0.999,0.709,0.318,0.569,0.537,��쓌,6.9,��
2023/04/27,17:20,0.551,0.808,0.491,1.000,0.708,0.319,0.568,0.539,��쓌,5.8,��
2023/04/27,17:30,0.551,0.806,0.489,1.000,0.709,0.320,0.569,0.538,��쓌,6.7,��
2023/04/27,17:40,0.550,0.805,0.491,1.001,0.708,0.319,0.567,0.542,��쓌,5.0,��
2023/04/27,17:50,0.551,0.810,0.488,1.001,0.708,0.318,0.569,0.539,��,4.6,��
2023/04/27,18:00,0.552,0.809,0.489,1.001,0.708,0.319,0.569,0.541,��쓌,6.1,��
2023/04/27,18:10,0.554,0.809,0.489,1.003,0.708,0.318,0.568,0.540,��쓌,5.9,��
2023/04/27,18:20,0.552,0.808,0.487,1.002,0.709,0.321,0.567,0.540,��,3.8,��
2023/04/27,18:30,0.553,0.808,0.490,1.003,0.709,0.320,0.569,0.541,��쐼,3.2,��
2023/04/27,18:40,0.554,0.809,0.493,1.004,0.711,0.322,0.569,0.540,���쐼,2.3,��
2023/04/27,18:50,0.553,0.807,0.490,1.002,0.709,0.320,0.570,0.541,�쐼,2.5,��
2023/04/27,19:00,0.554,0.808,0.492,1.003,0.712,0.321,0.571,0.540,���쐼,3.3,��
2023/04/27,19:10,0.554,0.809,0.491,1.001,0.710,0.321,0.571,0.539,���쐼,3.1,��
2023/04/27,19:20,0.553,0.809,0.491,1.005,0.712,0.321,0.570,0.539,�쐼,3.7,��
2023/04/27,19:30,0.554,0.808,0.491,1.004,0.709,0.320,0.574,0.539,���쐼,5.2,��
2023/04/27,19:40,0.554,0.809,0.490,1.004,0.712,0.321,0.571,0.540,���쐼,6.5,��
2023/04/27,19:50,0.552,0.808,0.491,1.003,0.711,0.321,0.573,0.540,��,6.5,��
2023/04/27,20:00,0.553,0.806,0.490,1.004,0.710,0.321,0.571,0.539,��,6.3,��
2023/04/27,20:10,0.555,0.810,0.491,1.004,0.712,0.321,0.572,0.541,���k��,6.1,��
2023/04/27,20:20,0.552,0.806,0.492,1.004,0.711,0.321,0.570,0.541,���k��,4.9,��
2023/04/27,20:30,0.555,0.807,0.493,1.004,0.711,0.321,0.571,0.541,��,4.7,��
2023/04/27,20:40,0.552,0.811,0.492,1.004,0.712,0.319,0.571,0.540,���k��,4.9,��
2023/04/27,20:50,0.554,0.809,0.491,1.005,0.710,0.319,0.573,0.539,���k��,3.4,��
2023/04/27,21:00,0.552,0.807,0.490,1.004,0.711,0.321,0.571,0.539,��쐼,4.3,��
2023/04/27,21:10,0.553,0.810,0.491,1.003,0.711,0.321,0.570,0.541,��,3.3,��
2023/04/27,21:20,0.554,0.809,0.491,1.005,0.709,0.322,0.572,0.539,��쓌,2.8,��
2023/04/27,21:30,0.554,0.809,0.490,1.003,0.711,0.320,0.573,0.540,�쓌,3.4,��
2023/04/27,21:40,0.554,0.808,0.491,1.003,0.712,0.322,0.575,0.540,��쓌,1.9,��
2023/04/27,21:50,0.553,0.808,0.492,1.003,0.712,0.321,0.572,0.540,��쐼,3.8,��
2023/04/27,22:00,0.552,0.807,0.489,1.003,0.709,0.319,0.571,0.540,��쐼,6.1,��
2023/04/27,22:10,0.553,0.809,0.492,1.004,0.712,0.320,0.573,0.539,��쐼,6.3,��
2023/04/27,22:20,0.553,0.807,0.490,1.003,0.711,0.321,0.572,0.541,��쐼,6.3,��
2023/04/27,22:30,0.554,0.808,0.491,1.002,0.713,0.318,0.571,0.541,�쐼,5.7,��
2023/04/27,22:40,0.554,0.809,0.490,1.005,0.712,0.320,0.573,0.539,�쐼,4.6,��
2023/04/27,22:50,0.554,0.809,0.489,1.007,0.711,0.322,0.573,0.540,�쐼,2.6,��
2023/04/27,23:00,0.553,0.807,0.491,1.004,0.711,0.320,0.573,0.540,��,1.2,��
2023/04/27,23:10,0.554,0.809,0.491,1.006,0.710,0.320,0.574,0.541,�k�k��,0.6,��
2023/04/27,23:20,0.553,0.807,0.492,1.004,0.712,0.321,0.575,0.541,-,CALM,��
2023/04/27,23:30,0.553,0.809,0.491,1.005,0.710,0.320,0.572,0.539,�k,0.9,��
2023/04/27,23:40,0.553,0.807,0.492,1.004,0.712,0.321,0.572,0.541,�k,0.8,��
2023/04/27,23:50,0.552,0.805,0.491,1.005,0.711,0.320,0.571,0.541,��쓌,1.2,��
